Wind_Speed
50 51 49 47 53 51 54 50 47 46 42 39 36 35 35 38 43 41 44 39 35 31 27 25 23 25 22 22 23 24 25 24 27 27 27 28 25 19 19 18 20 21 20 19 18 19 21 23 25
48 51 49 50 56 56 56 55 52 48 42 36 35 38 42 42 44 42 42 37 31 29 27 21 23 27 23 22 22 23 24 19 24 26 25 24 20 18 15 15 16 16 16 15 15 16 16 17 19
51 53 53 54 60 59 60 54 54 48 43 45 42 44 42 44 42 43 39 33 31 30 22 22 24 28 25 24 20 23 21 19 22 26 23 22 21 17 15 14 11 11 10 9 9 8 9 9 10
56 56 56 59 64 65 60 50 50 45 41 34 39 46 41 42 41 37 35 33 30 26 23 20 28 26 24 23 22 25 23 21 21 23 19 19 22 22 17 16 16 13 12 9 10 10 8 10 13
58 56 57 63 64 63 59 52 43 44 38 35 41 45 39 42 37 32 32 32 28 24 20 20 25 22 20 20 24 23 20 21 21 22 16 16 18 23 19 17 15 14 12 11 11 11 11 11 16
61 59 59 59 58 55 55 51 47 41 40 41 41 37 39 40 38 32 31 31 27 23 23 23 22 21 22 24 20 22 21 19 20 21 16 14 15 17 18 17 15 15 13 14 15 12 11 12 17
64 59 57 54 56 55 55 49 42 39 39 44 40 41 37 36 33 33 34 31 33 28 22 22 22 21 23 26 24 24 19 19 20 18 15 14 16 14 14 15 16 17 19 19 16 15 8 8 15
61 53 53 56 53 52 49 46 44 41 45 40 35 36 36 38 36 32 31 31 27 25 24 24 22 23 25 26 25 26 21 22 21 18 16 12 15 18 16 19 21 22 23 22 20 15 11 12 18
53 48 53 53 49 50 48 46 44 37 37 37 35 27 32 33 31 29 28 26 25 24 25 26 23 26 25 24 23 24 24 23 23 21 18 16 16 18 18 19 20 18 19 22 19 13 13 17 24
55 50 57 49 45 44 43 42 43 34 35 37 31 27 31 28 29 29 27 28 28 27 27 29 27 29 28 26 27 26 24 26 25 23 21 19 20 20 21 19 17 19 18 20 19 18 19 24 28
53 46 50 44 39 41 41 44 43 32 38 35 32 29 30 27 28 27 27 28 28 30 31 32 31 33 35 35 34 29 24 25 26 25 24 24 23 20 20 20 20 20 20 21 22 22 20 29 31
49 44 46 45 41 42 43 42 39 33 39 32 32 29 29 32 29 31 30 30 32 34 35 37 36 37 37 38 37 33 30 27 27 27 29 29 28 27 25 25 25 23 24 25 25 25 24 29 31
45 43 45 48 47 45 43 42 37 34 36 34 31 30 31 32 37 37 32 35 34 36 35 36 38 38 40 38 36 37 36 32 32 32 34 34 34 31 31 31 33 31 31 31 31 30 28 31 31
44 41 41 47 50 47 40 37 34 45 37 34 31 32 31 34 36 38 41 36 38 38 36 39 39 40 38 36 38 40 38 34 32 35 39 41 39 36 36 35 35 35 32 35 36 33 31 35 38
42 37 37 50 52 49 44 32 41 46 40 41 42 42 39 42 42 43 48 51 45 44 46 45 45 41 38 37 40 40 40 35 32 31 36 42 41 40 40 39 38 36 35 37 37 36 37 39 40
49 41 41 53 51 53 44 30 49 48 43 39 35 33 36 38 35 44 46 45 49 47 49 49 46 41 40 40 40 39 33 32 32 30 28 31 32 32 36 37 38 38 38 40 40 39 40 42 43
49 48 47 45 54 53 48 38 51 51 45 43 44 42 40 39 38 33 31 33 34 42 46 47 46 44 42 40 43 39 34 32 32 35 37 37 35 33 32 32 35 39 42 43 44 44 42 43 45
54 48 47 46 58 54 50 38 44 47 40 37 42 40 42 43 36 36 34 33 34 36 44 48 47 46 43 43 44 44 38 35 33 32 32 34 36 35 36 39 43 43 43 48 48 45 46 46 47
54 50 51 51 59 62 57 41 46 50 47 43 45 43 42 40 42 43 42 41 39 38 38 48 48 50 47 43 43 41 41 40 42 43 39 42 44 46 45 45 45 47 50 51 52 52 50 50 50
60 58 52 60 68 68 66 43 45 47 49 51 50 50 51 52 54 54 51 49 43 41 43 45 52 53 53 51 51 44 45 47 48 45 44 49 53 55 54 51 51 52 52 51 51 54 59 57 56
60 54 60 64 75 71 70 50 48 47 49 52 55 58 60 61 61 63 63 58 54 47 48 49 55 56 59 60 58 56 58 58 56 56 56 58 56 56 59 59 58 60 62 61 59 57 58 63 61
70 73 69 65 71 70 82 59 52 54 52 51 60 65 65 66 69 69 70 70 65 58 57 58 60 62 63 64 61 64 63 62 62 63 65 65 64 61 59 61 61 62 63 65 66 64 63 61 65
68 84 77 74 75 77 73 78 46 57 57 64 74 73 72 73 75 75 75 74 74 72 68 68 70 70 68 71 70 67 65 69 69 67 65 67 68 69 68 68 65 66 66 67 68 67 69 65 63
84 88 88 87 87 93 65 89 73 61 59 82 77 79 80 82 82 79 77 78 78 79 77 77 76 79 81 78 75 78 76 73 74 73 72 73 73 72 69 68 65 66 70 70 67 68 68 63 65
99 95 100 101 101 100 82 101 96 63 85 87 88 89 88 87 88 85 82 83 85 84 79 79 80 81 84 82 85 82 81 80 77 76 71 69 72 75 78 77 74 68 68 71 70 66 63 59 62
107 109 111 112 109 110 107 107 95 92 91 94 92 94 93 90 92 93 92 94 95 94 90 90 89 88 90 85 82 82 82 84 82 75 75 76 75 77 76 77 78 74 73 72 72 66 61 59 61
114 119 118 119 117 121 118 116 114 107 106 96 93 96 97 96 97 100 102 101 95 93 93 92 87 87 84 83 85 84 82 85 86 80 77 74 77 78 82 84 85 80 76 71 66 64 67 66 61
124 120 117 121 121 121 120 118 114 108 108 104 100 101 102 100 98 98 101 102 98 92 91 91 92 89 86 86 83 85 82 87 84 79 78 81 80 84 83 84 84 81 78 72 67 67 68 68 69
121 124 120 118 118 120 120 119 117 109 104 103 99 94 93 90 90 92 91 83 82 81 85 83 87 88 82 79 73 80 83 81 85 88 84 84 81 81 84 88 86 84 80 73 74 70 69 69 70
120 121 119 115 117 123 122 118 112 108 104 94 91 78 78 76 81 77 72 68 63 66 72 78 82 81 85 88 85 87 85 87 86 84 85 84 82 79 79 82 86 84 80 76 72 69 68 69 74
Wind_Direction
292 291 291 289 291 288 285 286 283 285 281 288 287 279 282 282 285 285 285 284 277 271 267 281 277 286 302 308 306 313 316 317 312 311 305 304 298 299 301 302 299 292 291 291 290 287 282 278 275
288 289 290 292 291 289 284 286 286 282 277 275 276 278 279 287 287 287 283 280 273 267 272 278 264 291 299 300 301 310 313 313 313 314 307 301 294 293 299 312 309 302 296 294 289 287 286 288 281
287 287 288 289 290 290 290 285 281 285 275 273 278 276 281 284 292 279 279 275 271 270 270 274 266 289 290 294 294 307 306 319 307 307 307 295 289 282 288 298 307 311 304 285 279 278 287 294 296
284 285 288 288 286 286 290 283 280 280 283 281 274 275 282 285 293 278 273 271 267 269 266 256 271 288 285 289 291 301 301 308 311 310 302 304 289 282 283 291 293 288 279 281 287 296 311 320 310
280 283 288 286 288 285 286 286 278 275 277 284 284 278 279 282 286 276 269 270 265 266 258 259 273 282 291 286 302 301 296 296 305 301 297 302 302 284 289 292 291 294 304 300 310 315 318 314 307
279 284 287 286 283 286 283 285 282 277 276 277 274 271 281 275 274 267 262 267 260 264 264 264 265 282 287 291 299 293 292 285 299 297 292 302 310 297 280 294 296 293 305 307 305 315 311 316 315
280 287 285 283 283 284 283 284 281 279 279 279 271 277 279 272 268 265 271 266 263 263 270 275 269 278 285 288 280 284 290 281 289 287 289 294 299 296 281 289 288 296 301 315 315 313 334 329 316
283 286 280 283 285 280 281 282 280 281 277 272 269 277 268 269 270 266 260 256 261 266 270 281 278 283 287 288 285 281 288 279 282 278 276 288 294 295 289 296 295 299 295 306 305 296 310 316 310
283 281 281 284 279 278 279 279 279 276 272 268 274 270 265 271 261 262 259 261 267 273 273 278 284 279 286 285 290 289 282 280 278 271 274 281 283 286 290 284 284 292 294 300 291 287 300 299 305
284 281 277 278 274 275 276 277 274 276 272 268 265 265 272 270 262 259 257 259 271 277 278 280 283 272 280 282 287 289 288 284 277 275 269 275 277 284 295 283 283 283 285 286 288 290 306 305 304
284 279 279 270 265 265 269 270 274 273 268 268 271 265 264 272 271 264 261 265 274 277 281 281 279 275 279 273 276 278 278 278 273 279 279 274 271 277 283 288 285 284 286 289 292 286 292 294 299
278 267 268 269 262 260 263 269 266 264 264 264 264 261 266 265 269 264 259 265 281 277 274 274 273 277 274 273 272 276 272 269 269 271 275 280 277 272 276 281 284 287 290 290 291 291 288 290 294
268 258 260 265 264 263 263 262 263 262 256 256 258 256 257 263 262 270 262 262 272 273 273 272 269 266 265 267 271 273 273 271 271 268 268 271 272 272 273 273 279 279 284 286 287 291 290 290 290
264 259 259 258 259 261 256 262 263 269 260 264 261 260 257 271 273 267 265 252 264 268 269 268 266 265 261 262 267 270 269 271 272 275 270 267 268 269 269 274 272 273 279 283 289 290 294 290 287
266 267 263 260 259 264 259 267 262 263 265 272 271 269 266 267 271 269 271 271 272 275 274 265 260 258 257 254 263 267 269 265 264 267 272 272 273 271 268 270 270 271 275 281 286 289 290 292 290
263 265 263 266 263 265 262 254 269 260 259 261 261 258 261 265 253 266 270 270 270 269 264 262 260 257 250 256 258 261 266 264 260 257 259 270 277 280 275 276 273 272 275 279 282 283 286 291 290
266 253 259 261 270 265 260 253 262 264 262 268 266 260 251 260 254 259 270 270 272 269 263 257 257 253 258 255 257 256 252 253 259 261 263 263 260 261 266 273 276 276 274 275 279 283 287 288 285
261 259 259 262 265 265 268 244 248 268 269 271 275 272 269 263 266 267 269 273 272 274 268 264 262 262 261 254 261 262 254 258 261 264 267 266 266 269 271 271 269 269 274 275 281 286 286 282 284
258 255 253 258 260 266 263 259 249 261 270 267 273 277 276 276 271 268 267 265 265 269 272 273 268 266 261 262 261 262 252 265 269 273 273 270 271 274 276 277 278 276 276 279 283 281 282 285 282
263 258 259 252 256 259 265 258 259 263 264 266 268 271 271 271 272 270 267 264 258 258 260 264 268 269 264 255 261 259 256 263 271 273 275 273 272 276 277 278 276 278 280 281 284 286 281 279 281
269 268 262 257 255 259 262 255 265 268 266 269 271 270 268 269 269 270 266 263 262 258 259 263 267 270 271 269 268 273 269 264 266 268 270 271 272 274 279 284 286 285 283 282 285 290 288 281 279
267 269 267 263 262 257 270 257 254 266 267 269 266 268 265 264 264 265 264 265 262 258 259 261 264 269 273 273 273 275 274 273 271 267 269 272 271 271 273 276 280 281 282 284 286 288 291 287 275
268 269 268 267 269 268 265 271 239 266 268 271 265 262 263 260 260 262 264 264 262 263 261 261 266 269 272 273 274 275 275 271 268 269 270 275 275 275 272 275 275 276 276 278 282 286 288 288 278
274 275 276 276 274 272 276 275 263 259 268 257 260 264 265 268 271 266 263 263 264 263 262 265 268 270 272 272 275 275 278 273 268 267 269 272 274 276 278 279 277 276 276 278 280 283 283 284 277
277 276 277 276 277 280 277 270 271 272 271 268 266 263 266 268 270 272 272 271 271 270 270 266 266 270 274 274 276 274 277 274 272 270 270 274 274 274 276 275 277 277 276 277 277 281 280 285 277
276 275 275 278 280 279 276 277 280 273 271 273 270 268 267 264 261 263 265 266 267 268 267 267 266 266 266 267 268 271 271 271 271 272 273 271 272 272 273 274 275 276 275 279 281 279 280 277 272
271 272 274 274 276 275 276 277 275 274 275 275 270 265 266 267 265 265 265 265 265 266 267 267 268 265 263 264 266 267 266 268 268 269 270 269 270 270 273 273 274 272 272 276 275 272 273 274 273
270 271 269 271 273 271 274 274 273 275 276 276 272 271 272 270 263 264 264 267 265 265 266 263 263 261 262 265 266 265 265 268 268 267 267 267 267 271 270 269 271 270 274 274 271 265 268 273 267
272 273 272 272 273 273 275 274 275 274 277 277 277 276 272 273 267 266 268 265 264 261 259 259 259 263 261 260 264 262 263 264 266 269 266 267 265 265 265 265 265 271 269 267 267 268 265 270 266
271 268 268 270 273 272 273 276 278 280 279 273 276 267 267 263 267 268 269 258 254 250 249 249 252 255 255 256 253 260 262 264 264 259 256 257 259 259 262 265 269 269 268 268 267 268 264 266 265
Height
10836 10834 10832 10830 10827 10825 10820 10821 10820 10818 10818 10817 10815 10814 10813 10810 10805 10805 10802 10804 10806 10803 10801 10800 10799 10797 10795 10792 10791 10789 10787 10785 10784 10782 10779 10777 10775 10773 10771 10770 10768 10769 10769 10770 10771 10772 10772 10773 10776
10827 10824 10823 10823 10817 10813 10810 10812 10810 10808 10809 10810 10806 10803 10806 10805 10800 10799 10795 10796 10797 10796 10795 10793 10793 10791 10788 10787 10786 10784 10782 10781 10780 10778 10775 10773 10772 10770 10768 10766 10766 10766 10765 10766 10767 10767 10767 10768 10770
10817 10814 10814 10812 10805 10800 10799 10801 10799 10800 10801 10802 10799 10792 10799 10798 10795 10790 10789 10791 10790 10789 10789 10788 10788 10785 10784 10783 10782 10780 10778 10777 10776 10775 10773 10771 10770 10768 10766 10765 10764 10763 10764 10764 10763 10763 10764 10765 10764
10806 10804 10804 10802 10795 10790 10789 10789 10791 10792 10793 10793 10790 10784 10789 10789 10787 10782 10782 10784 10782 10782 10782 10782 10782 10780 10780 10779 10777 10776 10774 10773 10773 10771 10769 10768 10767 10766 10764 10764 10763 10763 10762 10762 10761 10762 10762 10763 10761
10794 10795 10794 10791 10784 10778 10778 10780 10782 10783 10783 10781 10781 10779 10782 10780 10780 10777 10777 10777 10775 10776 10775 10777 10777 10776 10775 10775 10774 10772 10770 10770 10769 10768 10766 10765 10763 10763 10762 10761 10761 10761 10760 10759 10759 10759 10760 10760 10757
10784 10785 10784 10780 10772 10771 10767 10771 10773 10775 10776 10775 10774 10772 10774 10771 10770 10770 10771 10769 10769 10770 10770 10771 10770 10770 10770 10769 10768 10768 10766 10766 10764 10763 10762 10761 10760 10760 10759 10759 10758 10758 10758 10757 10757 10757 10757 10757 10753
10772 10776 10769 10768 10764 10763 10756 10762 10764 10764 10765 10763 10763 10764 10764 10762 10761 10763 10763 10761 10762 10763 10763 10764 10764 10764 10764 10764 10763 10763 10761 10761 10760 10759 10757 10756 10756 10756 10755 10755 10754 10754 10753 10753 10753 10753 10754 10754 10749
10761 10766 10757 10756 10755 10749 10752 10751 10753 10757 10753 10752 10754 10758 10754 10755 10754 10757 10757 10755 10755 10756 10756 10756 10757 10758 10757 10757 10757 10757 10757 10756 10755 10754 10753 10752 10752 10751 10751 10751 10750 10750 10749 10749 10748 10749 10751 10751 10746
10750 10756 10745 10745 10745 10740 10743 10745 10745 10744 10743 10743 10747 10749 10746 10746 10746 10748 10748 10748 10747 10748 10749 10749 10749 10752 10752 10752 10751 10751 10750 10751 10750 10750 10748 10748 10748 10747 10747 10746 10746 10745 10745 10744 10744 10745 10748 10746 10742
10739 10745 10735 10737 10736 10730 10733 10736 10732 10736 10733 10732 10738 10741 10739 10739 10739 10741 10740 10741 10741 10740 10741 10741 10742 10744 10744 10745 10744 10744 10744 10744 10745 10745 10744 10743 10743 10742 10742 10742 10742 10741 10740 10740 10740 10741 10743 10740 10738
10729 10729 10721 10724 10727 10725 10724 10725 10725 10730 10722 10727 10731 10734 10733 10732 10732 10732 10733 10733 10733 10733 10733 10735 10735 10736 10737 10738 10737 10736 10736 10737 10738 10739 10738 10738 10737 10737 10737 10737 10736 10736 10736 10735 10735 10737 10739 10735 10733
10723 10715 10714 10710 10715 10715 10715 10718 10718 10721 10713 10721 10722 10726 10725 10725 10724 10724 10725 10725 10725 10726 10727 10727 10729 10728 10729 10728 10729 10730 10728 10728 10729 10731 10731 10730 10730 10732 10731 10730 10730 10730 10730 10730 10730 10731 10734 10729 10727
10709 10708 10710 10707 10699 10705 10709 10708 10711 10707 10707 10713 10715 10717 10716 10716 10717 10716 10719 10719 10718 10719 10720 10720 10720 10720 10720 10720 10721 10722 10722 10721 10722 10722 10722 10721 10722 10723 10724 10724 10724 10723 10722 10722 10723 10724 10726 10722 10720
10693 10700 10700 10699 10688 10693 10698 10702 10706 10688 10701 10705 10707 10708 10710 10709 10710 10711 10710 10713 10711 10712 10711 10711 10711 10711 10711 10713 10712 10713 10713 10713 10714 10715 10714 10713 10713 10715 10715 10715 10715 10715 10715 10714 10714 10715 10717 10714 10711
10686 10689 10690 10679 10678 10682 10691 10702 10691 10684 10692 10695 10697 10699 10701 10703 10702 10702 10700 10701 10705 10704 10704 10702 10702 10702 10701 10703 10702 10703 10703 10704 10704 10705 10705 10704 10704 10706 10706 10707 10706 10706 10706 10705 10705 10705 10707 10706 10702
10674 10677 10674 10663 10670 10668 10681 10696 10672 10677 10684 10686 10686 10688 10691 10692 10695 10693 10692 10693 10693 10695 10693 10691 10691 10692 10691 10693 10694 10694 10694 10694 10695 10697 10697 10695 10695 10697 10698 10697 10697 10698 10696 10695 10695 10696 10698 10697 10694
10660 10663 10661 10660 10652 10653 10664 10681 10664 10666 10676 10677 10676 10679 10681 10681 10684 10684 10682 10682 10682 10681 10683 10680 10681 10682 10683 10686 10685 10686 10685 10684 10685 10687 10688 10685 10685 10686 10687 10688 10688 10688 10686 10684 10684 10684 10687 10687 10684
10643 10652 10652 10651 10635 10639 10645 10664 10660 10654 10664 10668 10666 10667 10670 10670 10669 10670 10672 10672 10669 10668 10668 10671 10672 10673 10675 10677 10677 10679 10680 10677 10677 10677 10680 10678 10677 10677 10678 10678 10678 10677 10675 10674 10674 10673 10672 10674 10673
10631 10635 10640 10637 10625 10617 10625 10648 10651 10648 10653 10656 10655 10655 10657 10658 10656 10654 10655 10658 10661 10660 10658 10655 10659 10662 10666 10666 10667 10669 10672 10672 10670 10668 10669 10670 10668 10667 10667 10667 10668 10666 10665 10664 10663 10661 10658 10660 10661
10610 10618 10625 10619 10606 10602 10603 10638 10638 10640 10642 10641 10644 10645 10641 10638 10636 10637 10639 10643 10651 10653 10653 10650 10645 10647 10651 10656 10656 10659 10660 10663 10660 10657 10656 10655 10656 10655 10653 10653 10654 10654 10653 10653 10650 10648 10646 10644 10644
10592 10602 10596 10595 10585 10593 10592 10626 10626 10630 10630 10631 10629 10626 10623 10624 10623 10621 10623 10626 10632 10644 10641 10641 10634 10633 10633 10636 10642 10646 10648 10652 10652 10645 10640 10642 10645 10645 10642 10638 10639 10639 10639 10639 10638 10634 10633 10631 10630
10571 10566 10570 10578 10570 10584 10562 10602 10620 10618 10617 10619 10609 10602 10604 10605 10604 10606 10609 10612 10617 10628 10631 10628 10627 10626 10620 10620 10626 10626 10631 10633 10635 10635 10629 10626 10629 10631 10632 10629 10627 10625 10622 10624 10622 10620 10619 10617 10616
10565 10537 10552 10558 10553 10552 10563 10557 10617 10602 10609 10599 10577 10581 10584 10584 10585 10589 10594 10597 10599 10604 10613 10615 10613 10612 10611 10607 10606 10607 10612 10615 10619 10620 10621 10614 10609 10612 10615 10615 10613 10613 10609 10608 10609 10606 10605 10602 10601
10531 10522 10525 10528 10530 10518 10569 10531 10563 10588 10592 10556 10564 10566 10567 10566 10563 10568 10576 10578 10580 10584 10593 10595 10596 10594 10591 10591 10590 10588 10588 10593 10597 10603 10607 10603 10596 10592 10595 10595 10595 10596 10593 10592 10591 10592 10592 10587 10586
10496 10499 10491 10491 10496 10504 10539 10494 10510 10578 10546 10541 10546 10549 10550 10548 10543 10545 10552 10553 10553 10559 10566 10572 10574 10572 10567 10568 10569 10571 10568 10568 10575 10581 10588 10587 10582 10578 10575 10573 10576 10578 10576 10575 10573 10574 10574 10572 10570
10475 10473 10468 10464 10470 10474 10483 10476 10505 10509 10517 10519 10520 10520 10526 10527 10525 10524 10525 10523 10525 10530 10538 10542 10551 10553 10551 10548 10547 10547 10549 10549 10552 10559 10565 10568 10564 10560 10554 10552 10555 10558 10559 10557 10556 10554 10556 10556 10554
10454 10443 10448 10435 10445 10431 10448 10460 10464 10469 10471 10479 10485 10490 10495 10498 10496 10499 10497 10495 10503 10505 10511 10517 10520 10525 10527 10527 10524 10527 10528 10529 10531 10538 10542 10545 10544 10539 10536 10530 10532 10535 10537 10540 10539 10538 10539 10538 10537
10415 10419 10418 10412 10406 10405 10411 10422 10429 10438 10437 10445 10448 10454 10457 10461 10465 10469 10471 10472 10477 10480 10484 10488 10491 10495 10499 10501 10503 10503 10506 10507 10511 10513 10516 10519 10519 10518 10514 10508 10509 10513 10516 10518 10520 10521 10522 10521 10520
10378 10376 10383 10380 10373 10373 10377 10385 10394 10407 10407 10411 10416 10420 10420 10428 10431 10436 10438 10444 10449 10453 10460 10461 10462 10467 10473 10476 10482 10481 10486 10488 10490 10492 10493 10493 10493 10494 10490 10489 10489 10492 10495 10496 10497 10503 10504 10504 10504
10349 10351 10352 10348 10344 10344 10341 10352 10360 10366 10370 10379 10387 10391 10394 10397 10398 10404 10408 10416 10423 10429 10432 10436 10442 10446 10451 10454 10461 10462 10465 10470 10471 10470 10469 10469 10471 10472 10467 10466 10469 10470 10472 10473 10477 10478 10483 10484 10485